Location: Ferques
(50.8300°N, 1.7599°E)
Time: 14:16:12
(UTC+00:00)

MetOp-B - Pass Details

Date: 19 May 2025
Orbit: 820 x 821 km, 98.6° (Epoch: 18 June)

Event Time Altitude Azimuth Distance (km) Brightness Sun altitude
Exits shadow 20:20:55 - 168° (SSE) 3,339 6.8 -5.7°
Reaches altitude 10° 20:23:15 10° 170° (S) 2,412 6.1 -6.0°
Maximum altitude 20:28:36 76° 256° (WSW) 850 4.4 -6.6°
Drops below altitude 10° 20:33:59 10° 342° (NNW) 2,429 7.7 -7.2°
Sets 20:36:21 0° 345° (NNW) 3,366 8.5 -7.5°
